SRR902 EGBB-EKBI

Flight info

Callsign SRR902
Flight time 1h 17m
Altitude 23000
Route LUVUM DCT TNT M868 ADELU/N0456F350 L60 MAMUL L603 LAMIX UT29 LIBSO UL975 ERDOW DCT ROPAL DCT LESRA L975 GOLUM N866 AMRAM P60 EPILO DCT GELBA
Aircraft A306/H-SDE3FGHIRWY/LB1

Departure

Time 2026-04-29 18:53
Airport Birmingham Airport (EGBB)

Arrival

Time 2026-04-29 20:10
Airport Billund Airport (EKBI)
Time Latitude Longitude Altitude Speed Heading
2026-04-29 18:28 52.45022 -1.74919 315 ft 0 kts 236°
2026-04-29 18:29 52.45020 -1.74924 334 ft 0 kts 236°
2026-04-29 18:42 52.45026 -1.74910 330 ft 4 kts 236°
2026-04-29 18:42 52.45038 -1.74881 329 ft 4 kts 231°
2026-04-29 18:42 52.45056 -1.74849 329 ft 4 kts 214°
2026-04-29 18:42 52.45079 -1.74831 329 ft 4 kts 187°
2026-04-29 18:43 52.45101 -1.74835 329 ft 2 kts 146°
2026-04-29 18:43 52.45085 -1.74817 329 ft 3 kts 146°
2026-04-29 18:43 52.45081 -1.74813 329 ft 0 kts 146°
2026-04-29 18:46 52.45031 -1.74757 332 ft 13 kts 145°
2026-04-29 18:46 52.44988 -1.74645 332 ft 11 kts 104°
2026-04-29 18:47 52.44971 -1.74526 333 ft 10 kts 100°
2026-04-29 18:47 52.44959 -1.74416 333 ft 9 kts 99°
2026-04-29 18:47 52.44949 -1.74317 330 ft 9 kts 98°
2026-04-29 18:47 52.44955 -1.74221 331 ft 8 kts 77°
2026-04-29 18:48 52.44965 -1.74149 334 ft 6 kts 81°
2026-04-29 18:48 52.44970 -1.74073 331 ft 8 kts 82°
2026-04-29 18:48 52.44989 -1.73965 327 ft 11 kts 72°
2026-04-29 18:48 52.45036 -1.73899 326 ft 8 kts 357°
2026-04-29 18:49 52.45082 -1.73938 327 ft 7 kts 327°
2026-04-29 18:49 52.45124 -1.73985 328 ft 7 kts 326°
2026-04-29 18:49 52.45163 -1.74030 326 ft 7 kts 325°
2026-04-29 18:49 52.45199 -1.74071 326 ft 6 kts 325°
2026-04-29 18:50 52.45230 -1.74106 326 ft 5 kts 325°
2026-04-29 18:50 52.45267 -1.74148 325 ft 10 kts 325°
2026-04-29 18:50 52.45351 -1.74236 325 ft 18 kts 324°
2026-04-29 18:50 52.45432 -1.74432 326 ft 22 kts 297°
2026-04-29 18:51 52.45517 -1.74620 325 ft 20 kts 322°
2026-04-29 18:51 52.45638 -1.74751 322 ft 22 kts 326°
2026-04-29 18:51 52.45772 -1.74901 316 ft 24 kts 325°
2026-04-29 18:51 52.45913 -1.75060 315 ft 24 kts 326°
2026-04-29 18:52 52.46052 -1.75211 312 ft 24 kts 328°
2026-04-29 18:52 52.46187 -1.75360 310 ft 22 kts 317°
2026-04-29 18:52 52.46195 -1.75515 313 ft 11 kts 241°
2026-04-29 18:52 52.46161 -1.75591 316 ft 8 kts 221°
2026-04-29 18:53 52.46036 -1.75522 316 ft 45 kts 145°
2026-04-29 18:53 52.45561 -1.74974 328 ft 122 kts 144°
2026-04-29 18:53 52.44652 -1.74016 427 ft 187 kts 142°
2026-04-29 18:53 52.43465 -1.72717 1064 ft 223 kts 140°
2026-04-29 18:54 52.42083 -1.71138 1291 ft 254 kts 140°
2026-04-29 18:54 52.40787 -1.69274 1248 ft 241 kts 120°
2026-04-29 18:54 52.40337 -1.66777 1231 ft 229 kts 87°
2026-04-29 18:54 52.40619 -1.64212 1310 ft 230 kts 74°
2026-04-29 18:55 52.41401 -1.61939 1844 ft 235 kts 46°
2026-04-29 18:55 52.42872 -1.60714 3110 ft 243 kts 25°
2026-04-29 18:55 52.44544 -1.59959 4447 ft 254 kts 22°
2026-04-29 18:55 52.46305 -1.59619 5792 ft 259 kts
2026-04-29 18:56 52.47898 -1.59698 6506 ft 273 kts
2026-04-29 18:56 52.49831 -1.59881 7307 ft 281 kts
2026-04-29 18:56 52.51745 -1.59439 8225 ft 277 kts 24°
2026-04-29 18:56 52.53513 -1.58196 9188 ft 277 kts 33°
2026-04-29 18:57 52.55191 -1.56606 9966 ft 280 kts 37°
2026-04-29 18:57 52.56824 -1.54799 10630 ft 291 kts 40°
2026-04-29 18:57 52.58477 -1.52836 10946 ft 312 kts 41°
2026-04-29 18:58 52.62289 -1.48249 11589 ft 352 kts 40°
2026-04-29 18:58 52.64266 -1.45922 11879 ft 369 kts 39°
2026-04-29 18:58 52.66396 -1.43451 12304 ft 380 kts 39°
2026-04-29 18:58 52.68586 -1.40938 12921 ft 387 kts 38°
2026-04-29 18:59 52.70799 -1.38409 13540 ft 392 kts 38°
2026-04-29 18:59 52.73065 -1.35818 14173 ft 397 kts 38°
2026-04-29 18:59 52.75345 -1.33205 15007 ft 400 kts 38°
2026-04-29 18:59 52.77632 -1.30576 15660 ft 402 kts 38°
2026-04-29 19:00 52.79950 -1.27902 16303 ft 406 kts 39°
2026-04-29 19:00 52.82238 -1.25254 16935 ft 409 kts 39°
2026-04-29 19:00 52.84577 -1.22543 17560 ft 412 kts 39°
2026-04-29 19:00 52.86937 -1.19804 18164 ft 415 kts 39°
2026-04-29 19:01 52.89313 -1.17041 18730 ft 418 kts 39°
2026-04-29 19:01 52.91709 -1.14252 19211 ft 422 kts 39°
2026-04-29 19:01 52.94116 -1.11447 19680 ft 426 kts 39°
2026-04-29 19:01 52.96552 -1.08603 20125 ft 429 kts 39°
2026-04-29 19:02 52.98999 -1.05746 20591 ft 433 kts 39°
2026-04-29 19:02 53.00637 -1.03830 20894 ft 435 kts 39°
2026-04-29 19:02 53.03955 -0.99943 21508 ft 439 kts 39°
2026-04-29 19:02 53.06458 -0.97006 21947 ft 442 kts 39°
2026-04-29 19:03 53.08993 -0.94027 22385 ft 446 kts 38°
2026-04-29 19:03 53.11497 -0.91080 22829 ft 449 kts 38°
2026-04-29 19:03 53.14049 -0.88072 23238 ft 452 kts 38°
2026-04-29 19:03 53.16625 -0.85031 23611 ft 453 kts 38°
2026-04-29 19:04 53.19208 -0.81979 23877 ft 456 kts 38°
2026-04-29 19:04 53.21798 -0.78913 24121 ft 458 kts 38°
2026-04-29 19:04 53.24405 -0.75823 24357 ft 460 kts 38°
2026-04-29 19:04 53.27015 -0.72719 24600 ft 461 kts 39°
2026-04-29 19:05 53.29433 -0.69247 24829 ft 458 kts 49°
2026-04-29 19:05 53.31421 -0.65101 25076 ft 455 kts 60°
2026-04-29 19:05 53.32993 -0.60529 25317 ft 454 kts 64°
2026-04-29 19:05 53.34427 -0.55802 25550 ft 455 kts 67°
2026-04-29 19:06 53.35775 -0.51017 25782 ft 456 kts 68°
2026-04-29 19:06 53.37094 -0.46182 25995 ft 458 kts 68°
2026-04-29 19:06 53.39739 -0.36429 26452 ft 461 kts 68°
2026-04-29 19:07 53.41083 -0.31548 26670 ft 462 kts 68°
2026-04-29 19:07 53.41987 -0.28300 26801 ft 464 kts 68°
2026-04-29 19:07 53.43807 -0.21800 27077 ft 466 kts 68°
2026-04-29 19:07 53.45207 -0.16809 27286 ft 467 kts 68°
2026-04-29 19:08 53.46571 -0.11945 27549 ft 467 kts 68°
2026-04-29 19:08 53.47950 -0.07013 27853 ft 466 kts 68°
2026-04-29 19:08 53.49320 -0.02098 28147 ft 465 kts 68°
2026-04-29 19:08 53.50691 0.02834 28444 ft 465 kts 68°
2026-04-29 19:09 53.52178 0.07651 28723 ft 467 kts 61°
2026-04-29 19:09 53.54100 0.12084 29052 ft 469 kts 54°
2026-04-29 19:09 53.56201 0.16298 29373 ft 469 kts 52°
2026-04-29 19:09 53.58357 0.20406 29683 ft 469 kts 51°
2026-04-29 19:10 53.60551 0.24482 30014 ft 469 kts 50°
2026-04-29 19:10 53.62754 0.28538 30322 ft 468 kts 50°
2026-04-29 19:10 53.64943 0.32574 30622 ft 467 kts 50°
2026-04-29 19:10 53.67131 0.36627 30933 ft 466 kts 50°
2026-04-29 19:11 53.69271 0.40613 31226 ft 464 kts 50°
2026-04-29 19:11 53.71424 0.44644 31526 ft 462 kts 50°
2026-04-29 19:11 53.73575 0.48685 31836 ft 461 kts 51°
2026-04-29 19:11 53.75718 0.52722 32131 ft 460 kts 51°
2026-04-29 19:12 53.77845 0.56737 32415 ft 459 kts 51°
2026-04-29 19:12 53.79966 0.60747 32709 ft 458 kts 51°
2026-04-29 19:12 53.82088 0.64766 32999 ft 456 kts 51°
2026-04-29 19:12 53.82797 0.66109 33100 ft 456 kts 51°
2026-04-29 19:13 53.86304 0.72767 33585 ft 454 kts 51°
2026-04-29 19:13 53.88406 0.76767 33870 ft 453 kts 51°
2026-04-29 19:13 53.90494 0.80745 34152 ft 452 kts 51°
2026-04-29 19:13 53.92467 0.84887 34420 ft 449 kts 56°
2026-04-29 19:14 53.94318 0.89164 34669 ft 448 kts 56°
2026-04-29 19:14 53.96127 0.93447 34916 ft 447 kts 57°
2026-04-29 19:14 53.97921 0.97758 35154 ft 445 kts 57°
2026-04-29 19:14 53.99694 1.02054 35379 ft 445 kts 57°
2026-04-29 19:15 54.01469 1.06368 35428 ft 440 kts 57°
2026-04-29 19:15 54.03182 1.10530 35433 ft 427 kts 57°
2026-04-29 19:15 54.04872 1.14641 35439 ft 420 kts 57°
2026-04-29 19:16 54.08211 1.22780 35444 ft 419 kts 57°
2026-04-29 19:16 54.11543 1.30925 35445 ft 419 kts 57°
2026-04-29 19:17 54.14878 1.39097 35454 ft 419 kts 57°
2026-04-29 19:17 54.18201 1.47264 35449 ft 419 kts 57°
2026-04-29 19:18 54.21498 1.55394 35454 ft 419 kts 57°
2026-04-29 19:18 54.24809 1.63582 35454 ft 419 kts 57°
2026-04-29 19:19 54.28112 1.71782 35460 ft 418 kts 57°
2026-04-29 19:19 54.31409 1.79992 35461 ft 418 kts 57°
2026-04-29 19:20 54.34699 1.88211 35464 ft 418 kts 57°
2026-04-29 19:20 54.37987 1.96454 35464 ft 418 kts 57°
2026-04-29 19:21 54.41260 2.04686 35470 ft 417 kts 57°
2026-04-29 19:21 54.44504 2.12871 35467 ft 417 kts 57°
2026-04-29 19:22 54.47759 2.21111 35471 ft 416 kts 57°
2026-04-29 19:22 54.51007 2.29360 35469 ft 416 kts 57°
2026-04-29 19:23 54.53724 2.36282 35473 ft 416 kts 57°
2026-04-29 19:23 54.56937 2.44495 35478 ft 416 kts 57°
2026-04-29 19:24 54.60164 2.52768 35476 ft 416 kts 57°
2026-04-29 19:24 54.63391 2.61070 35479 ft 416 kts 57°
2026-04-29 19:25 54.66586 2.69316 35480 ft 415 kts 57°
2026-04-29 19:25 54.69792 2.77620 35480 ft 415 kts 57°
2026-04-29 19:26 54.72994 2.85939 35485 ft 415 kts 57°
2026-04-29 19:26 54.76185 2.94258 35483 ft 415 kts 57°
2026-04-29 19:27 54.79377 3.02611 35482 ft 415 kts 57°
2026-04-29 19:27 54.82537 3.10906 35488 ft 415 kts 57°
2026-04-29 19:28 54.85712 3.19267 35487 ft 415 kts 57°
2026-04-29 19:28 54.88878 3.27635 35497 ft 414 kts 57°
2026-04-29 19:29 54.92045 3.36031 35490 ft 414 kts 57°
2026-04-29 19:29 54.95197 3.44418 35492 ft 414 kts 57°
2026-04-29 19:30 54.98342 3.52815 35495 ft 414 kts 57°
2026-04-29 19:30 55.01461 3.61170 35494 ft 414 kts 57°
2026-04-29 19:31 55.04591 3.69583 35494 ft 413 kts 57°
2026-04-29 19:31 55.07714 3.78006 35496 ft 413 kts 57°
2026-04-29 19:32 55.10830 3.86439 35498 ft 413 kts 57°
2026-04-29 19:32 55.13767 3.95058 35501 ft 413 kts 64°
2026-04-29 19:33 55.16125 4.04208 35498 ft 413 kts 66°
2026-04-29 19:33 55.18366 4.13475 35501 ft 413 kts 67°
2026-04-29 19:34 55.20561 4.22752 35501 ft 412 kts 68°
2026-04-29 19:34 55.22121 4.32404 35499 ft 413 kts 77°
2026-04-29 19:35 55.23215 4.42278 35498 ft 413 kts 78°
2026-04-29 19:35 55.24260 4.52109 35497 ft 413 kts 78°
2026-04-29 19:36 55.25300 4.62020 35498 ft 412 kts 78°
2026-04-29 19:36 55.26331 4.71931 35499 ft 412 kts 78°
2026-04-29 19:37 55.27351 4.81821 35498 ft 412 kts 78°
2026-04-29 19:37 55.28356 4.91652 35502 ft 412 kts 78°
2026-04-29 19:38 55.29361 5.01561 35507 ft 412 kts 78°
2026-04-29 19:38 55.30355 5.11450 35506 ft 411 kts 78°
2026-04-29 19:39 55.31340 5.21338 35509 ft 411 kts 78°
2026-04-29 19:39 55.32317 5.31227 35508 ft 411 kts 78°
2026-04-29 19:40 55.33281 5.41064 35507 ft 410 kts 78°
2026-04-29 19:40 55.34241 5.50948 35508 ft 410 kts 78°
2026-04-29 19:41 55.35192 5.60831 35507 ft 410 kts 78°
2026-04-29 19:41 55.36135 5.70714 35505 ft 410 kts 78°
2026-04-29 19:42 55.37069 5.80597 35506 ft 410 kts 78°
2026-04-29 19:42 55.37997 5.90497 35507 ft 409 kts 78°
2026-04-29 19:43 55.38914 6.00375 35507 ft 409 kts 78°
2026-04-29 19:43 55.39817 6.10193 35507 ft 409 kts 78°
2026-04-29 19:44 55.40718 6.20068 35506 ft 409 kts 78°
2026-04-29 19:44 55.41609 6.29942 35507 ft 408 kts 78°
2026-04-29 19:45 55.42494 6.39834 35507 ft 408 kts 78°
2026-04-29 19:45 55.43369 6.49704 35508 ft 408 kts 78°
2026-04-29 19:46 55.44230 6.59513 35504 ft 408 kts 78°
2026-04-29 19:46 55.45087 6.69377 35506 ft 407 kts 78°
2026-04-29 19:47 55.45936 6.79238 35506 ft 407 kts 78°
2026-04-29 19:47 55.46776 6.89094 35507 ft 407 kts 78°
2026-04-29 19:48 55.47623 6.99102 34819 ft 416 kts 78°
2026-04-29 19:48 55.47906 7.02464 34198 ft 421 kts 78°
2026-04-29 19:48 55.48482 7.09363 32793 ft 430 kts 78°
2026-04-29 19:48 55.48917 7.14606 31782 ft 436 kts 78°
2026-04-29 19:49 55.49356 7.19933 30783 ft 441 kts 78°
2026-04-29 19:49 55.49797 7.25320 29638 ft 445 kts 79°
2026-04-29 19:49 55.50238 7.30726 28528 ft 447 kts 79°
2026-04-29 19:49 55.50677 7.36155 27437 ft 449 kts 79°
2026-04-29 19:50 55.51113 7.41562 26359 ft 450 kts 79°
2026-04-29 19:50 55.51556 7.47100 25437 ft 448 kts 79°
2026-04-29 19:50 55.51980 7.52442 24623 ft 444 kts 79°
2026-04-29 19:50 55.52410 7.57879 23814 ft 439 kts 79°
2026-04-29 19:51 55.52819 7.63088 23129 ft 430 kts 79°
2026-04-29 19:51 55.53221 7.68237 22835 ft 417 kts 79°
2026-04-29 19:51 55.53615 7.73297 22575 ft 417 kts 79°
2026-04-29 19:51 55.54011 7.78384 22315 ft 416 kts 79°
2026-04-29 19:52 55.54400 7.83429 22056 ft 415 kts 79°
2026-04-29 19:52 55.54787 7.88473 21792 ft 413 kts 79°
2026-04-29 19:52 55.55169 7.93493 21548 ft 411 kts 79°
2026-04-29 19:52 55.55546 7.98470 21289 ft 409 kts 79°
2026-04-29 19:53 55.55920 8.03433 21044 ft 407 kts 79°
2026-04-29 19:53 55.56287 8.08327 20810 ft 405 kts 79°
2026-04-29 19:53 55.56659 8.13316 20559 ft 403 kts 79°
2026-04-29 19:53 55.57017 8.18148 20311 ft 401 kts 79°
2026-04-29 19:54 55.57737 8.27945 19827 ft 398 kts 79°
2026-04-29 19:54 55.58086 8.32735 19589 ft 396 kts 79°
2026-04-29 19:54 55.58434 8.37542 19354 ft 394 kts 79°
2026-04-29 19:55 55.58781 8.42349 19121 ft 393 kts 79°
2026-04-29 19:55 55.59121 8.47107 18866 ft 387 kts 79°
2026-04-29 19:55 55.59458 8.51833 18611 ft 387 kts 79°
2026-04-29 19:55 55.59794 8.56563 18346 ft 387 kts 79°
2026-04-29 19:56 55.60127 8.61287 18047 ft 384 kts 79°
2026-04-29 19:56 55.60448 8.65891 17173 ft 370 kts 80°
2026-04-29 19:56 55.60756 8.70336 16245 ft 357 kts 80°
2026-04-29 19:56 55.61045 8.74554 15767 ft 333 kts 80°
2026-04-29 19:57 55.61313 8.78479 15382 ft 311 kts 79°
2026-04-29 19:57 55.61482 8.80948 15115 ft 299 kts 79°
2026-04-29 19:57 55.61806 8.85672 14364 ft 287 kts 79°
2026-04-29 19:57 55.62046 8.89157 13590 ft 283 kts 79°
2026-04-29 19:58 55.62281 8.92600 12853 ft 280 kts 79°
2026-04-29 19:58 55.62511 8.95990 12118 ft 277 kts 79°
2026-04-29 19:58 55.62738 8.99360 11393 ft 274 kts 80°
2026-04-29 19:58 55.62963 9.02702 10658 ft 273 kts 80°
2026-04-29 19:59 55.63188 9.06044 9778 ft 275 kts 80°
2026-04-29 19:59 55.63414 9.09420 8872 ft 276 kts 81°
2026-04-29 19:59 55.63638 9.12796 7997 ft 277 kts 81°
2026-04-29 19:59 55.63859 9.16154 7151 ft 278 kts 81°
2026-04-29 20:00 55.64082 9.19558 6260 ft 278 kts 82°
2026-04-29 20:00 55.64302 9.22930 5543 ft 273 kts 82°
2026-04-29 20:00 55.64513 9.26193 5148 ft 258 kts 82°
2026-04-29 20:00 55.64705 9.29195 5054 ft 235 kts 82°
2026-04-29 20:01 55.64887 9.32018 5100 ft 227 kts 82°
2026-04-29 20:01 55.65060 9.34718 5076 ft 213 kts 82°
2026-04-29 20:01 55.65220 9.37230 5068 ft 201 kts 82°
2026-04-29 20:01 55.65376 9.39677 5067 ft 199 kts 82°
2026-04-29 20:02 55.65529 9.42074 5061 ft 198 kts 82°
2026-04-29 20:02 55.65684 9.44507 5074 ft 198 kts 82°
2026-04-29 20:02 55.65838 9.46942 5066 ft 199 kts 82°
2026-04-29 20:02 55.65890 9.47757 5064 ft 199 kts 82°
2026-04-29 20:03 55.66144 9.51803 5069 ft 198 kts 82°
2026-04-29 20:03 55.66319 9.54232 5004 ft 199 kts 76°
2026-04-29 20:03 55.67037 9.56245 4630 ft 199 kts 33°
2026-04-29 20:03 55.68356 9.56885 4320 ft 198 kts
2026-04-29 20:04 55.69726 9.57034 4078 ft 195 kts
2026-04-29 20:04 55.70621 9.57126 3889 ft 194 kts
2026-04-29 20:04 55.72282 9.57139 3432 ft 197 kts 347°
2026-04-29 20:04 55.73429 9.55936 3132 ft 197 kts 313°
2026-04-29 20:05 55.74265 9.53985 3065 ft 194 kts 304°
2026-04-29 20:05 55.74989 9.52083 3069 ft 176 kts 304°
2026-04-29 20:05 55.75435 9.50187 3068 ft 170 kts 276°
2026-04-29 20:05 55.75345 9.48030 3061 ft 172 kts 262°
2026-04-29 20:06 55.75165 9.46062 3040 ft 152 kts 259°
2026-04-29 20:06 55.74957 9.44285 3061 ft 147 kts 263°
2026-04-29 20:06 55.74889 9.42475 3056 ft 148 kts 267°
2026-04-29 20:06 55.74827 9.40612 2889 ft 154 kts 266°
2026-04-29 20:07 55.74760 9.38701 2659 ft 155 kts 267°
2026-04-29 20:07 55.74699 9.36824 2441 ft 150 kts 268°
2026-04-29 20:07 55.74641 9.34989 2237 ft 148 kts 268°
2026-04-29 20:07 55.74585 9.33173 2033 ft 148 kts 269°
2026-04-29 20:08 55.74529 9.31364 1835 ft 147 kts 269°
2026-04-29 20:08 55.74510 9.30752 1767 ft 146 kts 269°
2026-04-29 20:08 55.74419 9.27775 1431 ft 144 kts 269°
2026-04-29 20:08 55.74365 9.26020 1227 ft 143 kts 270°
2026-04-29 20:09 55.74310 9.24233 1018 ft 143 kts 269°
2026-04-29 20:09 55.74258 9.22515 819 ft 141 kts 269°
2026-04-29 20:09 55.74210 9.20789 640 ft 139 kts 269°
2026-04-29 20:09 55.74158 9.19070 368 ft 137 kts 267°
2026-04-29 20:10 55.74099 9.17364 260 ft 139 kts 268°
2026-04-29 20:10 55.74051 9.15786 248 ft 108 kts 267°
2026-04-29 20:10 55.74021 9.14806 252 ft 51 kts 266°
2026-04-29 20:10 55.73980 9.14437 249 ft 15 kts 221°
2026-04-29 20:11 55.73898 9.14310 247 ft 16 kts 230°
2026-04-29 20:11 55.73859 9.14193 247 ft 17 kts 246°
2026-04-29 20:11 55.73806 9.14114 247 ft 5 kts 162°
2026-04-29 20:11 55.73782 9.14144 247 ft 7 kts 143°
2026-04-29 20:12 55.73754 9.14168 247 ft 0 kts 166°